Content
SEND FEEDBACK

Daily
Averages
Monthly
Summary
Philippines

ANGELES CITY, PHILIPPINES


Home > Asia > Philippines
Elevation: 490 feet     Latitude: 15 11N     Longitude: 120 33E

WEATHER
 
SELECT A DAY
Number of Records: 92,182;   Date Range: 2/13/97 - 4/16/14
 
SHARE

PRINT THIS DATA

[ ← Previous Day ]
WEATHER ALMANAC - DECEMBER 31, 2012
[ Next Day → ]
[ °C ]   °F
Weather ElementAverageHighLow
Temperature78.6 °F87.8 °F (1:00 pm)71.6 °F (10:00 pm)
Dewpoint68.2 °F71.6 °F (8:00 am)64.4 °F (11:00 am)
Humidity72 %88 % (5:00 am)46 % (2:00 pm)
Barometer29.90 in29.95 in (8:00 am)29.86 in (3:00 am)
Wind Speed7.1 mph12.7 mph (10:00 am)
Wind Gust29.9 mph (7:00 pm)
Weather ElementAverage
Visibility6.2 mi
Wind DirectionSSW (199.5 °)

Weather ElementTotal
Precipitation---
Cooling Degree Days14.7 (Base 65)
Growing Degree Days29.7 (Base 50)
Averaged from 22 records on December 31, 2012
WEATHER CONDITIONS BREAKOUT
WIND DIRECTION BREAKOUT
WEATHER BY HOUR - DECEMBER 31, 2012
[ °C ]   °F
Local TimeTemperatureDewpointHumidityBarometerVisibilityWind DirectionWind SpeedGust SpeedPrecipitationEventsConditions
1:00 AM75.2 °F69.8 °F83 %29.89 in6.2 miNNW (340°)4.6 mphMostly Cloudy
2:00 AM75.2 °F69.8 °F83 %29.89 in6.2 miNW (320°)4.6 mphMostly Cloudy
3:00 AM75.2 °F69.8 °F83 %29.86 in6.2 miNW (320°)9.2 mphMostly Cloudy
4:00 AM75.2 °F69.8 °F83 %29.89 in6.2 miNNW (340°)4.6 mphMostly Cloudy
5:00 AM73.4 °F69.8 °F88 %29.89 in6.2 miNorth (360°)3.5 mphMostly Cloudy
6:00 AM73.4 °F69.8 °F88 %29.92 in6.2 miNorth (350°)3.5 mphMostly Cloudy
7:00 AM75.2 °F69.8 °F83 %29.92 in6.2 miNW (320°)5.8 mphMostly Cloudy
8:00 AM77.0 °F71.6 °F83 %29.95 in6.2 miNW (320°)6.9 mphMostly Cloudy
9:00 AM82.4 °F69.8 °F66 %29.95 in6.2 miNNE (30°)11.5 mphMostly Cloudy
10:00 AM84.2 °F66.2 °F55 %29.95 in6.2 miNNE (30°)12.7 mphMostly Cloudy
11:00 AM84.2 °F64.4 °F51 %29.92 in6.2 miNE (50°)11.5 mphMostly Cloudy
12:00 PM84.2 °F66.2 °F55 %29.89 in6.2 miENE (60°)11.5 mphMostly Cloudy
1:00 PM87.8 °F66.2 °F49 %29.89 in6.2 miEast (80°)9.2 mphMostly Cloudy
2:00 PM87.8 °F64.4 °F46 %29.86 in6.2 miNE (40°)9.2 mphMostly Cloudy
4:00 PM86.0 °F68.0 °F55 %29.86 in6.2 miENE (60°)10.4 mphScattered Clouds
5:00 PM82.4 °F68.0 °F62 %29.89 in6.2 miEast (90°)6.9 mphMostly Cloudy
6:00 PM78.8 °F68.0 °F69 %29.89 in6.2 miEast (90°)4.6 mphOvercast
7:00 PM77.0 °F68.0 °F74 %29.92 in6.2 miNE (50°)5.8 mph29.9 mphMostly Cloudy
8:00 PM75.2 °F68.0 °F78 %29.89 in6.2 miNW (320°)4.6 mphMostly Cloudy
9:00 PM73.4 °F68.0 °F83 %29.92 in6.2 miNW (310°)5.8 mphMostly Cloudy
10:00 PM71.6 °F68.0 °F88 %29.92 in6.2 miWest (270°)5.8 mphMostly Cloudy
11:00 PM73.4 °F66.2 °F78 %29.92 in6.2 miWSW (240°)4.6 mph21.9 mphMostly Cloudy
Hourly data recorded from RPLC, located 0.24 miles away from Angeles City, Philippines







STORIES FROM OUR PARTNERS